• In Hungary
  • List of Countries
  • For 7 days
  • Water Temperature
  • Satellite Maps
  • Weather Map
  • News
  • Weather Widgets
  • user-avatar
    Login

    Hourly Weather Jos

    Today, 26 September, Wednesday

    Time Temperature Precipitation Wind Pressure Humidity
    00:00 +21°C° 0.2 mm 1 mps 657 mmHg 83%
    01:00 +21°C° 0.2 mm 1 mps 657 mmHg 83%
    02:00 +20°C° 0 mm 1 mps 657 mmHg 83%
    03:00 +20°C° 0 mm 1 mps 656 mmHg 83%
    04:00 +20°C° 0 mm 1 mps 656 mmHg 83%
    05:00 +20°C° 0.2 mm 1 mps 656 mmHg 84%
    06:00 +20°C° 0.2 mm 1 mps 657 mmHg 85%
    07:00 +20°C° 0.2 mm 1 mps 657 mmHg 87%
    08:00 +22°C° 0.1 mm 1 mps 658 mmHg 79%
    09:00 +24°C° 0.1 mm 1 mps 658 mmHg 71%
    10:00 +26°C° 0.1 mm 1 mps 659 mmHg 64%
    11:00 +28°C° 0.3 mm 2 mps 659 mmHg 59%
    12:00 +29°C° 0.3 mm 2 mps 659 mmHg 55%
    13:00 +30°C° 0.3 mm 3 mps 658 mmHg 51%
    14:00 +29°C° 0.7 mm 3 mps 658 mmHg 53%
    15:00 +29°C° 0.7 mm 3 mps 657 mmHg 56%
    16:00 +28°C° 0.7 mm 3 mps 656 mmHg 58%
    17:00 +27°C° 0.4 mm 2 mps 656 mmHg 64%
    18:00 +25°C° 0.4 mm 2 mps 656 mmHg 71%
    19:00 +23°C° 0.4 mm 1 mps 656 mmHg 77%
    20:00 +22°C° 0.5 mm 1 mps 656 mmHg 80%
    21:00 +22°C° 0.5 mm 1 mps 656 mmHg 83%
    22:00 +21°C° 0.5 mm 1 mps 657 mmHg 86%
    23:00 +21°C° 0.5 mm 1 mps 657 mmHg 87%

    Tomorrow, 27 September, Thursday

    Time Temperature Precipitation Wind Pressure Humidity
    00:00 +21°C° 0.5 mm 1 mps 657 mmHg 87%
    01:00 +21°C° 0.5 mm 1 mps 657 mmHg 88%
    02:00 +21°C° 0.2 mm 1 mps 656 mmHg 87%
    03:00 +21°C° 0.2 mm 1 mps 656 mmHg 87%
    04:00 +20°C° 0.2 mm 2 mps 656 mmHg 86%
    05:00 +21°C° 0.1 mm 1 mps 656 mmHg 87%
    06:00 +21°C° 0.1 mm 1 mps 656 mmHg 89%
    07:00 +21°C° 0.1 mm 1 mps 656 mmHg 90%
    08:00 +22°C° 0.2 mm 1 mps 657 mmHg 84%
    09:00 +24°C° 0.2 mm 1 mps 658 mmHg 77%
    10:00 +26°C° 0.2 mm 1 mps 659 mmHg 70%
    11:00 +27°C° 0.7 mm 1 mps 659 mmHg 67%
    12:00 +27°C° 0.7 mm 1 mps 658 mmHg 65%
    13:00 +28°C° 0.7 mm 1 mps 658 mmHg 62%
    14:00 +27°C° 1.8 mm 2 mps 657 mmHg 66%
    15:00 +27°C° 1.8 mm 2 mps 657 mmHg 69%
    16:00 +26°C° 1.8 mm 2 mps 656 mmHg 72%
    17:00 +25°C° 0.9 mm 2 mps 656 mmHg 77%
    18:00 +24°C° 0.9 mm 2 mps 656 mmHg 82%
    19:00 +22°C° 0.9 mm 1 mps 656 mmHg 86%
    20:00 +22°C° 0.6 mm 1 mps 656 mmHg 87%
    21:00 +22°C° 0.6 mm 1 mps 656 mmHg 88%
    22:00 +21°C° 0.6 mm 1 mps 657 mmHg 89%
    23:00 +20°C° 0.2 mm 2 mps 657 mmHg 89%

    Day after tomorrow, 28 September, Friday

    Time Temperature Precipitation Wind Pressure Humidity
    00:00 +20°C° 0.2 mm 2 mps 656 mmHg 89%
    01:00 +20°C° 0.2 mm 2 mps 656 mmHg 89%
    02:00 +19°C° 0.3 mm 2 mps 656 mmHg 90%
    03:00 +19°C° 0.3 mm 2 mps 656 mmHg 91%
    04:00 +19°C° 0.3 mm 2 mps 655 mmHg 91%
    05:00 +19°C° 0.4 mm 2 mps 656 mmHg 92%
    06:00 +19°C° 0.4 mm 2 mps 656 mmHg 93%
    07:00 +19°C° 0.4 mm 2 mps 657 mmHg 93%
    08:00 +21°C° 0.3 mm 2 mps 657 mmHg 86%
    09:00 +24°C° 0.3 mm 1 mps 658 mmHg 79%
    10:00 +25°C° 0.3 mm 1 mps 659 mmHg 72%
    11:00 +26°C° 0.9 mm 1 mps 659 mmHg 70%
    12:00 +27°C° 0.9 mm 1 mps 658 mmHg 67%
    13:00 +27°C° 0.9 mm 1 mps 658 mmHg 65%
    14:00 +27°C° 1.9 mm 2 mps 657 mmHg 69%
    15:00 +26°C° 1.9 mm 2 mps 657 mmHg 74%
    16:00 +25°C° 1.9 mm 2 mps 656 mmHg 79%
    17:00 +24°C° 1.3 mm 2 mps 656 mmHg 83%
    18:00 +23°C° 1.3 mm 1 mps 656 mmHg 86%
    19:00 +22°C° 1.3 mm 1 mps 656 mmHg 89%
    20:00 +22°C° 1.9 mm 1 mps 656 mmHg 90%
    21:00 +21°C° 1.9 mm 1 mps 657 mmHg 90%
    22:00 +21°C° 1.9 mm 1 mps 657 mmHg 90%
    23:00 +21°C° 0.7 mm 1 mps 657 mmHg 90%

    29 September, Saturday

    Time Temperature Precipitation Wind Pressure Humidity
    00:00 +21°C° 0.7 mm 1 mps 657 mmHg 90%
    01:00 +21°C° 0.7 mm 1 mps 656 mmHg 90%
    02:00 +21°C° 0.1 mm 1 mps 656 mmHg 89%
    03:00 +20°C° 0.1 mm 1 mps 656 mmHg 89%
    04:00 +20°C° 0.1 mm 1 mps 655 mmHg 89%
    05:00 +21°C° 0.6 mm 1 mps 656 mmHg 89%
    06:00 +21°C° 0.6 mm 1 mps 657 mmHg 88%
    07:00 +19°C° 0.6 mm 0 mps 657 mmHg 88%
    08:00 +22°C° 0.9 mm 1 mps 658 mmHg 82%
    09:00 +24°C° 0.9 mm 1 mps 659 mmHg 77%
    10:00 +26°C° 0.9 mm 2 mps 659 mmHg 71%
    11:00 +26°C° 0.2 mm 2 mps 659 mmHg 66%
    12:00 +27°C° 0.2 mm 3 mps 658 mmHg 61%
    13:00 +28°C° 0.2 mm 3 mps 657 mmHg 56%
    14:00 +28°C° 0.2 mm 2 mps 657 mmHg 56%
    15:00 +28°C° 0.2 mm 2 mps 657 mmHg 56%
    16:00 +28°C° 0.2 mm 1 mps 656 mmHg 56%
    17:00 +26°C° 0.1 mm 1 mps 656 mmHg 62%
    18:00 +24°C° 0.1 mm 1 mps 656 mmHg 69%
    19:00 +23°C° 0.1 mm 1 mps 656 mmHg 75%
    20:00 +22°C° 0 mm 1 mps 656 mmHg 77%
    21:00 +20°C° 0 mm 0 mps 656 mmHg 80%
    22:00 +19°C° 0 mm 0 mps 657 mmHg 82%
    23:00 +21°C° 0 mm 1 mps 656 mmHg 82%

    30 September, Sunday

    Time Temperature Precipitation Wind Pressure Humidity
    00:00 +21°C° 0 mm 1 mps 656 mmHg 82%
    01:00 +21°C° 0 mm 1 mps 656 mmHg 82%
    02:00 +20°C° 0.3 mm 1 mps 656 mmHg 84%
    03:00 +18°C° 0.3 mm 0 mps 656 mmHg 85%
    04:00 +18°C° 0.3 mm 0 mps 656 mmHg 86%
    05:00 +18°C° 0.3 mm 0 mps 656 mmHg 85%
    06:00 +19°C° 0.3 mm 0 mps 656 mmHg 84%
    07:00 +21°C° 0.3 mm 1 mps 657 mmHg 84%
    08:00 +23°C° 0.1 mm 1 mps 658 mmHg 77%
    09:00 +25°C° 0.1 mm 1 mps 658 mmHg 70%
    10:00 +27°C° 0.1 mm 2 mps 659 mmHg 63%
    11:00 +28°C° 0.3 mm 2 mps 658 mmHg 59%
    12:00 +29°C° 0.3 mm 2 mps 658 mmHg 56%
    13:00 +30°C° 0.3 mm 2 mps 658 mmHg 52%
    14:00 +30°C° 1.1 mm 2 mps 657 mmHg 55%
    15:00 +29°C° 1.1 mm 2 mps 657 mmHg 59%
    16:00 +28°C° 1.1 mm 1 mps 656 mmHg 62%
    17:00 +26°C° 0.9 mm 2 mps 656 mmHg 69%
    18:00 +25°C° 0.9 mm 2 mps 656 mmHg 76%
    19:00 +23°C° 0.9 mm 2 mps 656 mmHg 83%
    20:00 +22°C° 0.9 mm 1 mps 656 mmHg 85%
    21:00 +22°C° 0.9 mm 1 mps 656 mmHg 86%
    22:00 +22°C° 0.9 mm 1 mps 656 mmHg 88%
    23:00 +21°C° 0.7 mm 1 mps 656 mmHg 89%

    1 October, Monday

    Time Temperature Precipitation Wind Pressure Humidity
    00:00 +20°C° 0.7 mm 2 mps 656 mmHg 90%
    01:00 +20°C° 0.7 mm 2 mps 656 mmHg 91%
    02:00 +20°C° 2.4 mm 2 mps 656 mmHg 91%
    03:00 +20°C° 2.4 mm 2 mps 656 mmHg 91%
    04:00 +20°C° 2.4 mm 2 mps 656 mmHg 91%
    05:00 +20°C° 0 mm 2 mps 656 mmHg 92%
    06:00 +20°C° 0 mm 2 mps 656 mmHg 92%
    07:00 +20°C° 0 mm 2 mps 657 mmHg 93%
    08:00 +21°C° 0.2 mm 2 mps 657 mmHg 87%
    09:00 +24°C° 0.2 mm 1 mps 658 mmHg 81%
    10:00 +25°C° 0.2 mm 1 mps 658 mmHg 75%
    11:00 +26°C° 0.7 mm 1 mps 658 mmHg 71%
    12:00 +27°C° 0.7 mm 1 mps 657 mmHg 66%
    13:00 +28°C° 0.7 mm 1 mps 657 mmHg 61%
    14:00 +28°C° 1.5 mm 1 mps 657 mmHg 65%
    15:00 +27°C° 1.5 mm 1 mps 656 mmHg 68%
    16:00 +27°C° 1.5 mm 1 mps 656 mmHg 72%
    17:00 +25°C° 1.3 mm 1 mps 656 mmHg 76%
    18:00 +24°C° 1.3 mm 1 mps 656 mmHg 81%
    19:00 +22°C° 1.3 mm 1 mps 656 mmHg 86%
    20:00 +22°C° 1.2 mm 1 mps 656 mmHg 87%
    21:00 +22°C° 1.2 mm 1 mps 656 mmHg 89%
    22:00 +21°C° 1.2 mm 1 mps 656 mmHg 91%
    23:00 +21°C° 0.9 mm 1 mps 656 mmHg 91%
    Show more